﻿測定場所 (Monitoring sites),日付 (Measurement date),時間 (Measurement time),線量率 最大値 (max) μGy/h,線量率 最小値 (min) μGy/h,線量率 平均値 (average) μGy/h,
調布 (Chofu),2022-04-24,23:01～24:00,0.0283,0.0246,0.0265,
調布 (Chofu),2022-04-24,22:01～23:00,0.0285,0.0249,0.0267,
調布 (Chofu),2022-04-24,21:01～22:00,0.0309,0.0259,0.0288,
調布 (Chofu),2022-04-24,20:01～21:00,0.0313,0.0259,0.0285,
調布 (Chofu),2022-04-24,19:01～20:00,0.0315,0.0258,0.0291,
調布 (Chofu),2022-04-24,18:01～19:00,0.0348,0.0298,0.0321,
調布 (Chofu),2022-04-24,17:01～18:00,0.0366,0.0323,0.0341,
調布 (Chofu),2022-04-24,16:01～17:00,0.0371,0.0334,0.0351,
調布 (Chofu),2022-04-24,15:01～16:00,0.0367,0.0320,0.0340,
調布 (Chofu),2022-04-24,14:01～15:00,0.0353,0.0305,0.0331,
調布 (Chofu),2022-04-24,13:01～14:00,0.0332,0.0281,0.0308,
調布 (Chofu),2022-04-24,12:01～13:00,0.0300,0.0247,0.0272,
調布 (Chofu),2022-04-24,11:01～12:00,0.0285,0.0251,0.0266,
調布 (Chofu),2022-04-24,10:01～11:00,0.0285,0.0243,0.0266,
調布 (Chofu),2022-04-24,09:01～10:00,0.0278,0.0245,0.0263,
調布 (Chofu),2022-04-24,08:01～09:00,0.0285,0.0246,0.0265,
調布 (Chofu),2022-04-24,07:01～08:00,0.0279,0.0249,0.0266,
調布 (Chofu),2022-04-24,06:01～07:00,0.0291,0.0250,0.0268,
調布 (Chofu),2022-04-24,05:01～06:00,0.0289,0.0245,0.0266,
調布 (Chofu),2022-04-24,04:01～05:00,0.0288,0.0248,0.0267,
調布 (Chofu),2022-04-24,03:01～04:00,0.0288,0.0250,0.0268,
調布 (Chofu),2022-04-24,02:01～03:00,0.0283,0.0250,0.0266,
調布 (Chofu),2022-04-24,01:01～02:00,0.0287,0.0247,0.0267,
調布 (Chofu),2022-04-24,00:01～01:00,0.0290,0.0246,0.0264,
調布 (Chofu),2022-04-23,23:01～24:00,0.0280,0.0249,0.0267,
調布 (Chofu),2022-04-23,22:01～23:00,0.0283,0.0247,0.0268,
調布 (Chofu),2022-04-23,21:01～22:00,0.0288,0.0245,0.0268,
調布 (Chofu),2022-04-23,20:01～21:00,0.0281,0.0242,0.0266,
調布 (Chofu),2022-04-23,19:01～20:00,0.0285,0.0250,0.0267,
調布 (Chofu),2022-04-23,18:01～19:00,0.0291,0.0252,0.0266,
調布 (Chofu),2022-04-23,17:01～18:00,0.0283,0.0247,0.0264,
調布 (Chofu),2022-04-23,16:01～17:00,0.0283,0.0250,0.0267,
調布 (Chofu),2022-04-23,15:01～16:00,0.0283,0.0246,0.0265,
調布 (Chofu),2022-04-23,14:01～15:00,0.0281,0.0249,0.0264,
調布 (Chofu),2022-04-23,13:01～14:00,0.0290,0.0241,0.0266,
調布 (Chofu),2022-04-23,12:01～13:00,0.0283,0.0247,0.0265,
調布 (Chofu),2022-04-23,11:01～12:00,0.0283,0.0242,0.0262,
調布 (Chofu),2022-04-23,10:01～11:00,0.0288,0.0246,0.0265,
調布 (Chofu),2022-04-23,09:01～10:00,0.0287,0.0248,0.0267,
調布 (Chofu),2022-04-23,08:01～09:00,0.0288,0.0253,0.0270,
調布 (Chofu),2022-04-23,07:01～08:00,0.0290,0.0253,0.0269,
調布 (Chofu),2022-04-23,06:01～07:00,0.0290,0.0251,0.0271,
調布 (Chofu),2022-04-23,05:01～06:00,0.0294,0.0251,0.0268,
調布 (Chofu),2022-04-23,04:01～05:00,0.0295,0.0250,0.0267,
調布 (Chofu),2022-04-23,03:01～04:00,0.0291,0.0252,0.0267,
調布 (Chofu),2022-04-23,02:01～03:00,0.0284,0.0252,0.0270,
調布 (Chofu),2022-04-23,01:01～02:00,0.0289,0.0250,0.0273,
調布 (Chofu),2022-04-23,00:01～01:00,0.0299,0.0260,0.0276,
調布 (Chofu),2022-04-22,23:01～24:00,0.0290,0.0256,0.0272,
調布 (Chofu),2022-04-22,22:01～23:00,0.0288,0.0252,0.0266,
調布 (Chofu),2022-04-22,21:01～22:00,0.0296,0.0250,0.0269,
調布 (Chofu),2022-04-22,20:01～21:00,0.0293,0.0247,0.0266,
調布 (Chofu),2022-04-22,19:01～20:00,0.0288,0.0241,0.0263,
調布 (Chofu),2022-04-22,18:01～19:00,0.0282,0.0249,0.0264,
調布 (Chofu),2022-04-22,17:01～18:00,0.0282,0.0245,0.0263,
調布 (Chofu),2022-04-22,16:01～17:00,0.0290,0.0241,0.0262,
調布 (Chofu),2022-04-22,15:01～16:00,0.0279,0.0242,0.0261,
調布 (Chofu),2022-04-22,14:01～15:00,0.0277,0.0247,0.0261,
調布 (Chofu),2022-04-22,13:01～14:00,0.0280,0.0244,0.0260,
調布 (Chofu),2022-04-22,12:01～13:00,0.0277,0.0243,0.0261,
調布 (Chofu),2022-04-22,11:01～12:00,0.0279,0.0238,0.0260,
調布 (Chofu),2022-04-22,10:01～11:00,0.0275,0.0240,0.0259,
調布 (Chofu),2022-04-22,09:01～10:00,0.0278,0.0246,0.0261,
調布 (Chofu),2022-04-22,08:01～09:00,0.0286,0.0243,0.0264,
調布 (Chofu),2022-04-22,07:01～08:00,0.0279,0.0250,0.0264,
調布 (Chofu),2022-04-22,06:01～07:00,0.0295,0.0243,0.0267,
調布 (Chofu),2022-04-22,05:01～06:00,0.0280,0.0238,0.0266,
調布 (Chofu),2022-04-22,04:01～05:00,0.0307,0.0257,0.0282,
調布 (Chofu),2022-04-22,03:01～04:00,0.0381,0.0284,0.0330,
調布 (Chofu),2022-04-22,02:01～03:00,0.0454,0.0359,0.0402,
調布 (Chofu),2022-04-22,01:01～02:00,0.0470,0.0402,0.0434,
調布 (Chofu),2022-04-22,00:01～01:00,0.0468,0.0343,0.0395,
調布 (Chofu),2022-04-21,23:01～24:00,0.0362,0.0321,0.0345,
調布 (Chofu),2022-04-21,22:01～23:00,0.0373,0.0316,0.0344,
調布 (Chofu),2022-04-21,21:01～22:00,0.0368,0.0318,0.0345,
調布 (Chofu),2022-04-21,20:01～21:00,0.0359,0.0281,0.0314,
調布 (Chofu),2022-04-21,19:01～20:00,0.0310,0.0270,0.0291,
調布 (Chofu),2022-04-21,18:01～19:00,0.0305,0.0250,0.0270,
調布 (Chofu),2022-04-21,17:01～18:00,0.0276,0.0243,0.0260,
調布 (Chofu),2022-04-21,16:01～17:00,0.0280,0.0243,0.0263,
調布 (Chofu),2022-04-21,15:01～16:00,0.0274,0.0236,0.0259,
調布 (Chofu),2022-04-21,14:01～15:00,0.0272,0.0242,0.0259,
調布 (Chofu),2022-04-21,13:01～14:00,0.0280,0.0241,0.0260,
調布 (Chofu),2022-04-21,12:01～13:00,0.0280,0.0242,0.0262,
調布 (Chofu),2022-04-21,11:01～12:00,0.0275,0.0246,0.0263,
調布 (Chofu),2022-04-21,10:01～11:00,0.0290,0.0248,0.0265,
調布 (Chofu),2022-04-21,09:01～10:00,0.0290,0.0254,0.0269,
調布 (Chofu),2022-04-21,08:01～09:00,0.0289,0.0257,0.0274,
調布 (Chofu),2022-04-21,07:01～08:00,0.0295,0.0253,0.0275,
調布 (Chofu),2022-04-21,06:01～07:00,0.0299,0.0248,0.0276,
調布 (Chofu),2022-04-21,05:01～06:00,0.0294,0.0250,0.0271,
調布 (Chofu),2022-04-21,04:01～05:00,0.0292,0.0250,0.0271,
調布 (Chofu),2022-04-21,03:01～04:00,0.0284,0.0245,0.0267,
調布 (Chofu),2022-04-21,02:01～03:00,0.0282,0.0248,0.0268,
調布 (Chofu),2022-04-21,01:01～02:00,0.0280,0.0246,0.0263,
調布 (Chofu),2022-04-21,00:01～01:00,0.0283,0.0242,0.0264,
調布 (Chofu),2022-04-20,23:01～24:00,0.0279,0.0244,0.0261,
調布 (Chofu),2022-04-20,22:01～23:00,0.0284,0.0237,0.0263,
調布 (Chofu),2022-04-20,21:01～22:00,0.0277,0.0242,0.0261,
調布 (Chofu),2022-04-20,20:01～21:00,0.0280,0.0247,0.0262,
調布 (Chofu),2022-04-20,19:01～20:00,0.0281,0.0242,0.0261,
調布 (Chofu),2022-04-20,18:01～19:00,0.0278,0.0242,0.0262,
調布 (Chofu),2022-04-20,17:01～18:00,0.0288,0.0247,0.0265,
調布 (Chofu),2022-04-20,16:01～17:00,0.0281,0.0247,0.0265,
調布 (Chofu),2022-04-20,15:01～16:00,0.0279,0.0240,0.0264,
調布 (Chofu),2022-04-20,14:01～15:00,0.0284,0.0251,0.0270,
調布 (Chofu),2022-04-20,13:01～14:00,0.0290,0.0246,0.0266,
調布 (Chofu),2022-04-20,12:01～13:00,0.0275,0.0243,0.0259,
調布 (Chofu),2022-04-20,11:01～12:00,0.0277,0.0241,0.0260,
調布 (Chofu),2022-04-20,10:01～11:00,0.0279,0.0247,0.0261,
調布 (Chofu),2022-04-20,09:01～10:00,0.0277,0.0239,0.0261,
調布 (Chofu),2022-04-20,08:01～09:00,0.0279,0.0240,0.0259,
調布 (Chofu),2022-04-20,07:01～08:00,0.0284,0.0244,0.0262,
調布 (Chofu),2022-04-20,06:01～07:00,0.0305,0.0251,0.0276,
調布 (Chofu),2022-04-20,05:01～06:00,0.0340,0.0275,0.0309,
調布 (Chofu),2022-04-20,04:01～05:00,0.0361,0.0318,0.0342,
調布 (Chofu),2022-04-20,03:01～04:00,0.0357,0.0280,0.0325,
調布 (Chofu),2022-04-20,02:01～03:00,0.0335,0.0276,0.0302,
調布 (Chofu),2022-04-20,01:01～02:00,0.0332,0.0270,0.0300,
調布 (Chofu),2022-04-20,00:01～01:00,0.0301,0.0254,0.0279,
調布 (Chofu),2022-04-19,23:01～24:00,0.0314,0.0278,0.0295,
調布 (Chofu),2022-04-19,22:01～23:00,0.0351,0.0294,0.0318,
調布 (Chofu),2022-04-19,21:01～22:00,0.0390,0.0332,0.0360,
調布 (Chofu),2022-04-19,20:01～21:00,0.0360,0.0254,0.0312,
調布 (Chofu),2022-04-19,19:01～20:00,0.0287,0.0247,0.0264,
調布 (Chofu),2022-04-19,18:01～19:00,0.0278,0.0240,0.0263,
調布 (Chofu),2022-04-19,17:01～18:00,0.0280,0.0243,0.0259,
調布 (Chofu),2022-04-19,16:01～17:00,0.0280,0.0242,0.0260,
調布 (Chofu),2022-04-19,15:01～16:00,0.0279,0.0245,0.0262,
調布 (Chofu),2022-04-19,14:01～15:00,0.0277,0.0243,0.0259,
調布 (Chofu),2022-04-19,13:01～14:00,0.0279,0.0237,0.0262,
調布 (Chofu),2022-04-19,12:01～13:00,0.0280,0.0246,0.0263,
調布 (Chofu),2022-04-19,11:01～12:00,0.0283,0.0238,0.0264,
調布 (Chofu),2022-04-19,10:01～11:00,0.0288,0.0249,0.0267,
調布 (Chofu),2022-04-19,09:01～10:00,0.0285,0.0249,0.0269,
調布 (Chofu),2022-04-19,08:01～09:00,0.0282,0.0245,0.0266,
調布 (Chofu),2022-04-19,07:01～08:00,0.0294,0.0252,0.0267,
調布 (Chofu),2022-04-19,06:01～07:00,0.0295,0.0247,0.0266,
調布 (Chofu),2022-04-19,05:01～06:00,0.0284,0.0251,0.0267,
調布 (Chofu),2022-04-19,04:01～05:00,0.0282,0.0246,0.0263,
調布 (Chofu),2022-04-19,03:01～04:00,0.0281,0.0242,0.0260,
調布 (Chofu),2022-04-19,02:01～03:00,0.0279,0.0241,0.0264,
調布 (Chofu),2022-04-19,01:01～02:00,0.0284,0.0242,0.0265,
調布 (Chofu),2022-04-19,00:01～01:00,0.0290,0.0251,0.0273,
調布 (Chofu),2022-04-18,23:01～24:00,0.0364,0.0287,0.0322,
調布 (Chofu),2022-04-18,22:01～23:00,0.0422,0.0348,0.0377,
調布 (Chofu),2022-04-18,21:01～22:00,0.0454,0.0364,0.0402,
調布 (Chofu),2022-04-18,20:01～21:00,0.0460,0.0385,0.0421,
調布 (Chofu),2022-04-18,19:01～20:00,0.0427,0.0350,0.0376,
調布 (Chofu),2022-04-18,18:01～19:00,0.0388,0.0324,0.0354,
調布 (Chofu),2022-04-18,17:01～18:00,0.0369,0.0316,0.0340,
調布 (Chofu),2022-04-18,16:01～17:00,0.0331,0.0261,0.0292,
調布 (Chofu),2022-04-18,15:01～16:00,0.0291,0.0254,0.0273,
調布 (Chofu),2022-04-18,14:01～15:00,0.0304,0.0259,0.0282,
調布 (Chofu),2022-04-18,13:01～14:00,0.0327,0.0275,0.0299,
調布 (Chofu),2022-04-18,12:01～13:00,0.0299,0.0253,0.0279,
調布 (Chofu),2022-04-18,11:01～12:00,0.0289,0.0251,0.0268,
調布 (Chofu),2022-04-18,10:01～11:00,0.0293,0.0249,0.0272,
調布 (Chofu),2022-04-18,09:01～10:00,0.0298,0.0261,0.0276,
調布 (Chofu),2022-04-18,08:01～09:00,0.0288,0.0252,0.0273,
調布 (Chofu),2022-04-18,07:01～08:00,0.0292,0.0258,0.0274,
調布 (Chofu),2022-04-18,06:01～07:00,0.0302,0.0264,0.0277,
調布 (Chofu),2022-04-18,05:01～06:00,0.0292,0.0258,0.0277,
調布 (Chofu),2022-04-18,04:01～05:00,0.0297,0.0247,0.0273,
調布 (Chofu),2022-04-18,03:01～04:00,0.0289,0.0257,0.0273,
調布 (Chofu),2022-04-18,02:01～03:00,0.0288,0.0249,0.0267,
調布 (Chofu),2022-04-18,01:01～02:00,0.0289,0.0247,0.0267,
調布 (Chofu),2022-04-18,00:01～01:00,0.0285,0.0248,0.0265,
